Regional Weather Roundup
Issued by NWS

Home | Current Version | Previous Version | Graphics & Text | Print | Product List | Glossary On
Versions: 1 2 3 4 5 6 7 8 9 10 11 12 13 14 15 16 17 18 19 20 21 22 23 24 25 26 27 28 29 30 31 32 33 34 35 36 37 38 39 40 41 42 43 44 45 46 47 48 49 50
000
ASUS43 KMPX 131810
RWRMN
WEATHER ROUNDUP FOR MINNESOTA
NATIONAL WEATHER SERVICE TWIN CITIES/CHANHASSEN MN
100 PM CDT SUN JUL 13 2014


NOTE: "FAIR" INDICATES FEW OR NO CLOUDS BELOW 12,000 FEET WITH NO
SIGNIFICANT WEATHER AND/OR OBSTRUCTIONS TO VISIBILITY. N/A MEANS
CURRENT SKY AND/OR WEATHER CONDITIONS ARE NOT AVAILABLE.

MNZ060>063-068>070-131900-
   Twin Cities Metro

CITY           SKY/WX    TMP DP  RH WIND       PRES   REMARKS
TWIN CITIES    MOSUNNY   74  49  41 NW10      29.96F
6HR MIN TEMP:  64; 6HR MAX TEMP:  75;

ST PAUL        MOSUNNY   73  49  42 W14       29.95F
CRYSTAL        MOSUNNY   74  47  38 W13G18    29.95F
BLAINE         MOSUNNY   73  50  43 W9G17     29.96S
LAKEVILLE      SUNNY     72  48  43 NW9       29.97F
EDEN PRAIRIE   SUNNY     74  50  42 W8        29.96F
6HR MIN TEMP:  63; 6HR MAX TEMP:  74;

SOUTH ST PAUL  SUNNY     73  45  36 NW12      29.95F
LAKE ELMO      FAIR      72  50  46 W7        29.97S
$$
MNZ001>005-007-008-013>017-022>024-027-028-131900-
   Northwest Minnesota

CITY           SKY/WX    TMP DP  RH WIND       PRES   REMARKS
BEMIDJI        PTSUNNY   66  44  44 W17G24    29.91S
HALLOCK        MOSUNNY   64  46  52 NW20G25   29.90S
ROSEAU         MOSUNNY   64  52  63 W13G22    29.86S
WARROAD        MOSUNNY   63  52  67 W16G22    29.85S
THIEF RVR FALL PTSUNNY   66  45  45 NW18G29   29.91S
CROOKSTON      MOSUNNY   70  45  40 NW21G33   29.93S
FOSSTON        PTSUNNY   64  46  52 W18G28    29.93S
DETROIT LAKES  SUNNY     70  43  37 NW18G25   29.97S
MOORHEAD       SUNNY     73  36  25 NW20G25   29.96F
PARK RAPIDS    MOSUNNY   69  43  38 NW21G32   29.93F
$$
MNZ006-009>011-018-025>026-131900-
   North Central Minnesota

CITY           SKY/WX    TMP DP  RH WIND       PRES   REMARKS
BAUDETTE       CLOUDY    64  47  53 NW17G25   29.85R
FLAG ISLAND    DRIZZLE   55  52  88 W16       29.82S
INTL FALLS     PTSUNNY   65  45  48 W18G30    29.80F
6HR MIN TEMP:  52; 6HR MAX TEMP:  67;

WASKISH        MOSUNNY   66  48  52 W15G28    29.86F
BIG FORK       MOSUNNY   66  48  52 W7G21     29.87F
LONGVILLE      PTSUNNY   70  46  43 W8G21     29.90F
GRAND RAPIDS   CLOUDY    66  45  45 W14       29.89S
CRANE LAKE     MOSUNNY   64  48  55 W10G18    29.82F
ORR            MOSUNNY   66  46  48 W15G23    29.81F
COOK           RAIN      59  52  77 W8G25     29.86R
$$
MNZ012-019>021-037-131900-
   Northeast Minnesota

CITY           SKY/WX    TMP DP  RH WIND       PRES   REMARKS
DULUTH         LGT RAIN  58  49  72 N9        29.88F
6HR MIN TEMP:  54; 6HR MAX TEMP:  69; 6HR PCP: TRACE;

ELY            LGT RAIN  63  48  59 W16G24    29.83F
HIBBING        PTSUNNY   68  46  45 W14       29.86F
EVELETH        PTSUNNY   64  45  48 W15G25    29.86F
DULUTH HARBOR  CLOUDY    70  50  49 W16G22    29.87F
TWO HARBORS    PTSUNNY   63  48  59 W14G23    29.85S
SILVER BAY     SUNNY     66  52  59 SW6       29.82F
GRAND MARAIS     N/A     52  42  69 W7G17     29.79F
G MARAIS ARPRT MOSUNNY   63  43  48 W13G18    29.82F
$$
MNZ029>031-032-039>041-046>048-054>057-064-131900-
   West Central Minnesota

CITY           SKY/WX    TMP DP  RH WIND       PRES   REMARKS
FERGUS FALLS   SUNNY     72  36  26 NW18G24   29.97F
WHEATON        SUNNY     72  46  40 W15G23    30.00F
MORRIS         SUNNY     73  54  49 W20G25    29.98S
ALEXANDRIA     PTSUNNY   70  47  43 W18G28    29.99F
WADENA         SUNNY     68  46  45 NW15      29.95F
GLENWOOD       SUNNY     72  48  43 NW15G22   29.99S
APPLETON       SUNNY     79  54  41 W12       29.97F
BENSON         MOSUNNY   75  55  50 NW9G18    29.98F
ORTONVILLE     SUNNY     73  46  38 NW16      29.99S
MADISON        SUNNY     77  54  44 NW20G28   29.99F
WILLMAR        FAIR      73  52  46 W15       29.99F
$$
MNZ033>034-036-042>043-049>051-058-059-131900-
   Central Minnesota

CITY           SKY/WX    TMP DP  RH WIND       PRES   REMARKS
ST CLOUD       MOSUNNY   76  46  34 W20G26    29.94F
6HR MIN TEMP:  58; 6HR MAX TEMP:  76;

SAUK CENTRE    FAIR      72  46  40 W15G22    29.97F
PAYNESVILLE    MOSUNNY   70  52  52 SW14      29.98F HAZE
AITKIN         MOSUNNY   72  45  37 W12G17    29.90F
PINE RIVER     MOSUNNY   66  46  48 NW12G20   29.95F
BRAINERD       MOSUNNY   76  44  32 W14G21    29.93F
STAPLES        SUNNY     70  43  37 W17G24    29.94F
LONG PRAIRIE   FAIR      70  45  40 W18       29.97S
LITTLE FALLS   SUNNY     70  39  32 W14G20    29.95F
LITCHFIELD     MOSUNNY   73  54  49 NW13G20   29.98F
BUFFALO        PTSUNNY   72  51  47 W10G16    29.97F
MAPLE LAKE     MOSUNNY   72  55  54 W8G17     29.97F
$$
MNZ037-044-045-052-053-131900-
   East Central Minnesota

CITY           SKY/WX    TMP DP  RH WIND       PRES   REMARKS
PRINCETON      MOSUNNY   73  52  46 W14       29.94F
MORA           MOSUNNY   70  48  46 W13       29.94F
CAMBRIDGE      MOSUNNY   73  54  49 W9        29.92F
RUSH CITY      MOSUNNY   71  51  50 W9G17     29.93F
MOOSE LAKE     PTSUNNY   68  45  42 W14G20    29.88F
HINCKLEY       FAIR      72  50  46 W13       29.92F
CLOQUET        PTSUNNY   70  43  37 W17G24    29.88F
MCGREGOR       CLOUDY    66  45  45 W14G24    29.91F
$$
MNZ071>073-080-081-089-090-097-098-131900-
   Southwest Minnesota

CITY           SKY/WX    TMP DP  RH WIND       PRES   REMARKS
MONTEVIDEO     SUNNY     77  57  50 NW3       29.99F
GRANITE FALLS  MOSUNNY   74  55  50 W8        30.01F
CANBY          MOSUNNY   78  52  41 W18G28    30.01F
MARSHALL       MOSUNNY   77  54  44 NW17G25   29.99F
REDWOOD FALLS  PTSUNNY   74  52  46 W9        29.99F
OLIVIA         MOSUNNY   73  54  49 W9        29.99F
PIPESTONE      SUNNY     77  54  44 W14       30.04F
WINDOM         SUNNY     79  52  38 W21       30.01F
WORTHINGTON    SUNNY     75  57  53 W9        30.04F
JACKSON        SUNNY     77  54  44 W12       30.03S
TRACY          MOSUNNY   77  57  49 W12G20    30.01S
SLAYTON        SUNNY     77  52  41 W14G21    30.03F
$$
MNZ065>067-074>077-082>085-091>093-131900-
   South Central Minnesota

CITY           SKY/WX    TMP DP  RH WIND       PRES   REMARKS
MANKATO        SUNNY     73  52  46 NW14      29.99F
NEW ULM        SUNNY     73  55  53 NW13      30.00S
ST JAMES       SUNNY     77  48  36 W15G21    30.01S
FAIRMONT       SUNNY     79  54  41 NW13G18   30.01F
GLENCOE        SUNNY     73  52  47 W8G17     29.98F
FARIBAULT      SUNNY     77  43  29 NW8       29.99F
OWATONNA       SUNNY     73  46  38 NW16G22   29.99F
WASECA         SUNNY     72  46  40 NW13      30.01F
ALBERT LEA     SUNNY     75  54  46 NW12      30.00S
$$
MNZ078>079-086>088-094>096-131900-
   Southeast Minnesota

CITY           SKY/WX    TMP DP  RH WIND       PRES   REMARKS
ROCHESTER      MOSUNNY   74  57  55 NW15G21   29.99S
6HR MIN TEMP:  65; 6HR MAX TEMP:  75;

RED WING       SUNNY     75  45  33 N10       29.95F
STANTON        SUNNY     74  47  38 W8        29.96F
DODGE CENTER   SUNNY     73  52  46 NW14G21   29.99S
WINONA         SUNNY     73  50  43 N5        29.96S
AUSTIN         SUNNY     75  48  38 W18G25    29.99S
PRESTON        MOSUNNY   74  57  54 W15G23    29.98F
$$
ABBREVIATIONS USED IN REMARKS
   TC - TEMPERATURES IN CELSIUS
  WCI - WIND CHILL INDEX
   HX - HEAT INDEX
  VSB - VISIBILITY
$$



USA.gov is the U.S. government's official web portal to all federal, state and local government web resources and services.